Year,Month,Day,Hour,Minute,Value (Times are PST for temperature in C)
2014,08,25,00,00,20.70
2014,08,25,00,01,20.70
2014,08,25,00,02,20.60
2014,08,25,00,03,20.60
2014,08,25,00,04,20.50
2014,08,25,00,05,20.50
2014,08,25,00,06,20.40
2014,08,25,00,07,20.30
2014,08,25,00,08,20.30
2014,08,25,00,09,20.30
2014,08,25,00,10,20.30
2014,08,25,00,11,20.30
2014,08,25,00,12,20.30
2014,08,25,00,13,20.40
2014,08,25,00,14,20.40
2014,08,25,00,15,20.40
2014,08,25,00,16,20.40
2014,08,25,00,17,20.40
2014,08,25,00,18,20.50
2014,08,25,00,19,20.50
2014,08,25,00,20,20.60
2014,08,25,00,21,20.60
2014,08,25,00,22,20.60
2014,08,25,00,23,20.60
2014,08,25,00,24,20.60
2014,08,25,00,25,20.60
2014,08,25,00,26,20.60
2014,08,25,00,27,20.60
2014,08,25,00,28,20.50
2014,08,25,00,29,20.50
2014,08,25,00,30,20.40
2014,08,25,00,31,20.40
2014,08,25,00,32,20.40
2014,08,25,00,33,20.40
2014,08,25,00,34,20.40
2014,08,25,00,35,20.40
2014,08,25,00,36,20.40
2014,08,25,00,37,20.40
2014,08,25,00,38,20.40
2014,08,25,00,39,20.40
2014,08,25,00,40,20.30
2014,08,25,00,41,20.30
2014,08,25,00,42,20.30
2014,08,25,00,43,20.30
2014,08,25,00,44,20.30
2014,08,25,00,45,20.40
2014,08,25,00,46,20.40
2014,08,25,00,47,20.40
2014,08,25,00,48,20.50
2014,08,25,00,49,20.50
2014,08,25,00,50,20.50
2014,08,25,00,51,20.50
2014,08,25,00,52,20.60
2014,08,25,00,53,20.60
2014,08,25,00,54,20.60
2014,08,25,00,55,20.50
2014,08,25,00,56,20.50
2014,08,25,00,57,20.50
2014,08,25,00,58,20.40
2014,08,25,00,59,20.40
2014,08,25,01,00,20.40
2014,08,25,01,01,20.40
2014,08,25,01,02,20.40
2014,08,25,01,03,20.30
2014,08,25,01,04,20.40
2014,08,25,01,05,20.40
2014,08,25,01,06,20.40
2014,08,25,01,07,20.40
2014,08,25,01,08,20.30
2014,08,25,01,09,20.30
2014,08,25,01,10,20.30
2014,08,25,01,11,20.30
2014,08,25,01,12,20.30
2014,08,25,01,13,20.30
2014,08,25,01,14,20.30
2014,08,25,01,15,20.40
2014,08,25,01,16,20.40
2014,08,25,01,17,20.40
2014,08,25,01,18,20.40
2014,08,25,01,19,20.40
2014,08,25,01,20,20.40
2014,08,25,01,21,20.40
2014,08,25,01,22,20.40
2014,08,25,01,23,20.40
2014,08,25,01,24,20.40
2014,08,25,01,25,20.40
2014,08,25,01,26,20.40
2014,08,25,01,27,20.40
2014,08,25,01,28,20.40
2014,08,25,01,29,20.40
2014,08,25,01,30,20.40
2014,08,25,01,31,20.40
2014,08,25,01,32,20.40
2014,08,25,01,33,20.40
2014,08,25,01,34,20.40
2014,08,25,01,35,20.40
2014,08,25,01,36,20.40
2014,08,25,01,37,20.40
2014,08,25,01,38,20.40
2014,08,25,01,39,20.50
2014,08,25,01,40,20.50
2014,08,25,01,41,20.50
2014,08,25,01,42,20.50
2014,08,25,01,43,20.50
2014,08,25,01,44,20.50
2014,08,25,01,45,20.50
2014,08,25,01,46,20.50
2014,08,25,01,47,20.50
2014,08,25,01,48,20.40
2014,08,25,01,49,20.40
2014,08,25,01,50,20.40
2014,08,25,01,51,20.40
2014,08,25,01,52,20.40
2014,08,25,01,53,20.40
2014,08,25,01,54,20.40
2014,08,25,01,55,20.40
2014,08,25,01,56,20.40
2014,08,25,01,57,20.40
2014,08,25,01,58,20.40
2014,08,25,01,59,20.30
2014,08,25,02,00,20.30
2014,08,25,02,01,20.30
2014,08,25,02,02,20.30
2014,08,25,02,03,20.30
2014,08,25,02,04,20.30
2014,08,25,02,05,20.30
2014,08,25,02,06,20.30
2014,08,25,02,07,20.30
2014,08,25,02,08,20.30
2014,08,25,02,09,20.20
2014,08,25,02,10,20.20
2014,08,25,02,11,20.20
2014,08,25,02,12,20.30
2014,08,25,02,13,20.30
2014,08,25,02,14,20.30
2014,08,25,02,15,20.20
2014,08,25,02,16,20.20
2014,08,25,02,17,20.20
2014,08,25,02,18,20.20
2014,08,25,02,19,20.20
2014,08,25,02,20,20.20
2014,08,25,02,21,20.20
2014,08,25,02,22,20.20
2014,08,25,02,23,20.10
2014,08,25,02,24,20.10
2014,08,25,02,25,20.10
2014,08,25,02,26,20.10
2014,08,25,02,27,20.10
2014,08,25,02,28,20.10
2014,08,25,02,29,20.10
2014,08,25,02,30,20.10
2014,08,25,02,31,20.00
2014,08,25,02,32,20.00
2014,08,25,02,33,19.90
2014,08,25,02,34,19.90
2014,08,25,02,35,19.90
2014,08,25,02,36,19.90
2014,08,25,02,37,19.90
2014,08,25,02,38,19.80
2014,08,25,02,39,19.80
2014,08,25,02,40,19.80
2014,08,25,02,41,19.80
2014,08,25,02,42,19.80
2014,08,25,02,43,19.70
2014,08,25,02,44,19.70
2014,08,25,02,45,19.70
2014,08,25,02,46,19.70
2014,08,25,02,47,19.70
2014,08,25,02,48,19.70
2014,08,25,02,49,19.70
2014,08,25,02,50,19.60
2014,08,25,02,51,19.60
2014,08,25,02,52,19.60
2014,08,25,02,53,19.60
2014,08,25,02,54,19.60
2014,08,25,02,55,19.60
2014,08,25,02,56,19.60
2014,08,25,02,57,19.50
2014,08,25,02,58,19.50
2014,08,25,02,59,19.50
2014,08,25,03,00,19.50
2014,08,25,03,01,19.40
2014,08,25,03,02,19.40
2014,08,25,03,03,19.40
2014,08,25,03,04,19.40
2014,08,25,03,05,19.30
2014,08,25,03,06,19.30
2014,08,25,03,07,19.30
2014,08,25,03,08,19.40
2014,08,25,03,09,19.40
2014,08,25,03,10,19.40
2014,08,25,03,11,19.40
2014,08,25,03,12,19.40
2014,08,25,03,13,19.30
2014,08,25,03,14,19.30
2014,08,25,03,15,19.30
2014,08,25,03,16,19.30
2014,08,25,03,17,19.30
2014,08,25,03,18,19.30
2014,08,25,03,19,19.30
2014,08,25,03,20,19.30
2014,08,25,03,21,19.30
2014,08,25,03,22,19.30
2014,08,25,03,23,19.30
2014,08,25,03,24,19.30
2014,08,25,03,25,19.30
2014,08,25,03,26,19.30
2014,08,25,03,27,19.30
2014,08,25,03,28,19.20
2014,08,25,03,29,19.20
2014,08,25,03,30,19.20
2014,08,25,03,31,19.20
2014,08,25,03,32,19.10
2014,08,25,03,33,19.10
2014,08,25,03,34,19.10
2014,08,25,03,35,19.10
2014,08,25,03,36,19.10
2014,08,25,03,37,19.10
2014,08,25,03,38,19.10
2014,08,25,03,39,19.10
2014,08,25,03,40,19.10
2014,08,25,03,41,19.10
2014,08,25,03,42,19.00
2014,08,25,03,43,19.10
2014,08,25,03,44,19.10
2014,08,25,03,45,19.10
2014,08,25,03,46,19.10
2014,08,25,03,47,19.10
2014,08,25,03,48,19.10
2014,08,25,03,49,19.10
2014,08,25,03,50,19.10
2014,08,25,03,51,19.10
2014,08,25,03,52,19.10
2014,08,25,03,53,19.10
2014,08,25,03,54,19.20
2014,08,25,03,55,19.20
2014,08,25,03,56,19.20
2014,08,25,03,57,19.10
2014,08,25,03,58,19.10
2014,08,25,03,59,19.10
2014,08,25,04,00,19.10
2014,08,25,04,01,19.10
2014,08,25,04,02,19.10
2014,08,25,04,03,19.10
2014,08,25,04,04,19.10
2014,08,25,04,05,19.20
2014,08,25,04,06,19.20
2014,08,25,04,07,19.10
2014,08,25,04,08,19.10
2014,08,25,04,09,19.10
2014,08,25,04,10,19.10
2014,08,25,04,11,19.10
2014,08,25,04,12,19.10
2014,08,25,04,13,19.10
2014,08,25,04,14,19.00
2014,08,25,04,15,19.00
2014,08,25,04,16,19.00
2014,08,25,04,17,19.00
2014,08,25,04,18,18.90
2014,08,25,04,19,18.90
2014,08,25,04,20,18.80
2014,08,25,04,21,18.80
2014,08,25,04,22,18.80
2014,08,25,04,23,18.70
2014,08,25,04,24,18.60
2014,08,25,04,25,18.50
2014,08,25,04,26,18.30
2014,08,25,04,27,18.20
2014,08,25,04,28,18.10
2014,08,25,04,29,18.00
2014,08,25,04,30,18.00
2014,08,25,04,31,17.90
2014,08,25,04,32,17.80
2014,08,25,04,33,17.80
2014,08,25,04,34,17.70
2014,08,25,04,35,17.60
2014,08,25,04,36,17.50
2014,08,25,04,37,17.40
2014,08,25,04,38,17.30
2014,08,25,04,39,17.30
2014,08,25,04,40,17.30
2014,08,25,04,41,17.20
2014,08,25,04,42,17.20
2014,08,25,04,43,17.10
2014,08,25,04,44,17.10
2014,08,25,04,45,17.00
2014,08,25,04,46,17.10
2014,08,25,04,47,17.20
2014,08,25,04,48,17.30
2014,08,25,04,49,17.40
2014,08,25,04,50,17.60
2014,08,25,04,51,17.70
2014,08,25,04,52,17.90
2014,08,25,04,53,17.90
2014,08,25,04,54,18.10
2014,08,25,04,55,18.20
2014,08,25,04,56,18.20
2014,08,25,04,57,18.30
2014,08,25,04,58,18.30
2014,08,25,04,59,18.30
2014,08,25,05,00,18.40
2014,08,25,05,01,18.50
2014,08,25,05,02,18.50
2014,08,25,05,03,18.60
2014,08,25,05,04,18.60
2014,08,25,05,05,18.50
2014,08,25,05,06,18.40
2014,08,25,05,07,18.30
2014,08,25,05,08,18.10
2014,08,25,05,09,18.00
2014,08,25,05,10,17.80
2014,08,25,05,11,17.60
2014,08,25,05,12,17.50
2014,08,25,05,13,17.30
2014,08,25,05,14,17.20
2014,08,25,05,15,17.00
2014,08,25,05,16,16.90
2014,08,25,05,17,16.80
2014,08,25,05,18,16.70
2014,08,25,05,19,16.60
2014,08,25,05,20,16.60
2014,08,25,05,21,16.50
2014,08,25,05,22,16.40
2014,08,25,05,23,16.30
2014,08,25,05,24,16.30
2014,08,25,05,25,16.30
2014,08,25,05,26,16.20
2014,08,25,05,27,16.10
2014,08,25,05,28,16.10
2014,08,25,05,29,16.00
2014,08,25,05,30,16.00
2014,08,25,05,31,15.90
2014,08,25,05,32,15.90
2014,08,25,05,33,15.80
2014,08,25,05,34,15.80
2014,08,25,05,35,15.70
2014,08,25,05,36,15.70
2014,08,25,05,37,15.60
2014,08,25,05,38,15.50
2014,08,25,05,39,15.50
2014,08,25,05,40,15.40
2014,08,25,05,41,15.40
2014,08,25,05,42,15.40
2014,08,25,05,43,15.30
2014,08,25,05,44,15.30
2014,08,25,05,45,15.20
2014,08,25,05,46,15.20
2014,08,25,05,47,15.10
2014,08,25,05,48,15.10
2014,08,25,05,49,15.00
2014,08,25,05,50,15.00
2014,08,25,05,51,15.00
2014,08,25,05,52,14.90
2014,08,25,05,53,14.80
2014,08,25,05,54,14.80
2014,08,25,05,55,14.80
2014,08,25,05,56,14.70
2014,08,25,05,57,14.70
2014,08,25,05,58,14.70
2014,08,25,05,59,14.70
2014,08,25,06,00,14.60
2014,08,25,06,01,14.60
2014,08,25,06,02,14.60
2014,08,25,06,03,14.60
2014,08,25,06,04,14.60
2014,08,25,06,05,14.60
2014,08,25,06,06,14.60
2014,08,25,06,07,14.60
2014,08,25,06,08,14.50
2014,08,25,06,09,14.50
2014,08,25,06,10,14.50
2014,08,25,06,11,14.40
2014,08,25,06,12,14.40
2014,08,25,06,13,14.40
2014,08,25,06,14,14.40
2014,08,25,06,15,14.30
2014,08,25,06,16,14.30
2014,08,25,06,17,14.30
2014,08,25,06,18,14.30
2014,08,25,06,19,14.30
2014,08,25,06,20,14.20
2014,08,25,06,21,14.20
2014,08,25,06,22,14.20
2014,08,25,06,23,14.20
2014,08,25,06,24,14.10
2014,08,25,06,25,14.10
2014,08,25,06,26,14.10
2014,08,25,06,27,14.00
2014,08,25,06,28,14.00
2014,08,25,06,29,13.90
2014,08,25,06,30,13.90
2014,08,25,06,31,13.80
2014,08,25,06,32,13.80
2014,08,25,06,33,13.80
2014,08,25,06,34,13.70
2014,08,25,06,35,13.70
2014,08,25,06,36,13.70
2014,08,25,06,37,13.70
2014,08,25,06,38,13.60
2014,08,25,06,39,13.60
2014,08,25,06,40,13.60
2014,08,25,06,41,13.60
2014,08,25,06,42,13.60
2014,08,25,06,43,13.60
2014,08,25,06,44,13.50
2014,08,25,06,45,13.50
2014,08,25,06,46,13.50
2014,08,25,06,47,13.50
2014,08,25,06,48,13.50
2014,08,25,06,49,13.50
2014,08,25,06,50,13.50
2014,08,25,06,51,13.50
2014,08,25,06,52,13.50
2014,08,25,06,53,13.50
2014,08,25,06,54,13.50
2014,08,25,06,55,13.50
2014,08,25,06,56,13.50
2014,08,25,06,57,13.40
2014,08,25,06,58,13.40
2014,08,25,06,59,13.40
2014,08,25,07,00,13.40
2014,08,25,07,01,13.40
2014,08,25,07,02,13.40
2014,08,25,07,03,13.40
2014,08,25,07,04,13.40
2014,08,25,07,05,13.40
2014,08,25,07,06,13.40
2014,08,25,07,07,13.40
2014,08,25,07,08,13.40
2014,08,25,07,09,13.40
2014,08,25,07,10,13.40
2014,08,25,07,11,13.30
2014,08,25,07,12,13.30
2014,08,25,07,13,13.30
2014,08,25,07,14,13.30
2014,08,25,07,15,13.30
2014,08,25,07,16,13.30
2014,08,25,07,17,13.30
2014,08,25,07,18,13.30
2014,08,25,07,19,13.30
2014,08,25,07,20,13.30
2014,08,25,07,21,13.40
2014,08,25,07,22,13.40
2014,08,25,07,23,13.40
2014,08,25,07,24,13.40
2014,08,25,07,25,13.40
2014,08,25,07,26,13.50
2014,08,25,07,27,13.50
2014,08,25,07,28,13.40
2014,08,25,07,29,13.40
2014,08,25,07,30,13.40
2014,08,25,07,31,13.40
2014,08,25,07,32,13.40
2014,08,25,07,33,13.40
2014,08,25,07,34,13.40
2014,08,25,07,35,13.40
2014,08,25,07,36,13.40
2014,08,25,07,37,13.50
2014,08,25,07,38,13.50
2014,08,25,07,39,13.60
2014,08,25,07,40,13.60
2014,08,25,07,41,13.60
2014,08,25,07,42,13.60
2014,08,25,07,43,13.70
2014,08,25,07,44,13.70
2014,08,25,07,45,13.70
2014,08,25,07,46,13.70
2014,08,25,07,47,13.70
2014,08,25,07,48,13.70
2014,08,25,07,49,13.70
2014,08,25,07,50,13.80
2014,08,25,07,51,13.80
2014,08,25,07,52,13.80
2014,08,25,07,53,13.80
2014,08,25,07,54,13.80
2014,08,25,07,55,13.90
2014,08,25,07,56,13.90
2014,08,25,07,57,13.90
2014,08,25,07,58,13.90
2014,08,25,07,59,13.90
2014,08,25,08,00,14.00
2014,08,25,08,01,14.00
2014,08,25,08,02,14.00
2014,08,25,08,03,14.00
2014,08,25,08,04,14.00
2014,08,25,08,05,14.00
2014,08,25,08,06,14.00
2014,08,25,08,07,14.00
2014,08,25,08,08,14.10
2014,08,25,08,09,14.10
2014,08,25,08,10,14.10
2014,08,25,08,11,14.10
2014,08,25,08,12,14.10
2014,08,25,08,13,14.20
2014,08,25,08,14,14.20
2014,08,25,08,15,14.30
2014,08,25,08,16,14.30
2014,08,25,08,17,14.30
2014,08,25,08,18,14.40
2014,08,25,08,19,14.40
2014,08,25,08,20,14.40
2014,08,25,08,21,14.50
2014,08,25,08,22,14.50
2014,08,25,08,23,14.50
2014,08,25,08,24,14.60
2014,08,25,08,25,14.60
2014,08,25,08,26,14.60
2014,08,25,08,27,14.70
2014,08,25,08,28,14.70
2014,08,25,08,29,14.70
2014,08,25,08,30,14.70
2014,08,25,08,31,14.80
2014,08,25,08,32,14.80
2014,08,25,08,33,14.90
2014,08,25,08,34,14.90
2014,08,25,08,35,14.90
2014,08,25,08,36,15.00
2014,08,25,08,37,15.00
2014,08,25,08,38,15.10
2014,08,25,08,39,15.10
2014,08,25,08,40,15.20
2014,08,25,08,41,15.20
2014,08,25,08,42,15.20
2014,08,25,08,43,15.30
2014,08,25,08,44,15.30
2014,08,25,08,45,15.40
2014,08,25,08,46,15.50
2014,08,25,08,47,15.50
2014,08,25,08,48,15.60
2014,08,25,08,49,15.60
2014,08,25,08,50,15.70
2014,08,25,08,51,15.70
2014,08,25,08,52,15.80
2014,08,25,08,53,15.80
2014,08,25,08,54,15.90
2014,08,25,08,55,16.00
2014,08,25,08,56,16.00
2014,08,25,08,57,16.10
2014,08,25,08,58,16.10
2014,08,25,08,59,16.20
2014,08,25,09,00,16.30
2014,08,25,09,01,16.30
2014,08,25,09,02,16.40
2014,08,25,09,03,16.50
2014,08,25,09,04,16.50
2014,08,25,09,05,16.60
2014,08,25,09,06,16.70
2014,08,25,09,07,16.80
2014,08,25,09,08,16.80
2014,08,25,09,09,16.90
2014,08,25,09,10,16.90
2014,08,25,09,11,16.90
2014,08,25,09,12,16.90
2014,08,25,09,13,17.00
2014,08,25,09,14,17.00
2014,08,25,09,15,17.00
2014,08,25,09,16,17.10
2014,08,25,09,17,17.10
2014,08,25,09,18,17.10
2014,08,25,09,19,17.10
2014,08,25,09,20,17.10
2014,08,25,09,21,17.10
2014,08,25,09,22,17.10
2014,08,25,09,23,17.10
2014,08,25,09,24,17.10
2014,08,25,09,25,17.10
2014,08,25,09,26,17.10
2014,08,25,09,27,17.10
2014,08,25,09,28,17.10
2014,08,25,09,29,17.20
2014,08,25,09,30,17.20
2014,08,25,09,31,17.20
2014,08,25,09,32,17.20
2014,08,25,09,33,17.30
2014,08,25,09,34,17.30
2014,08,25,09,35,17.30
2014,08,25,09,36,17.30
2014,08,25,09,37,17.30
2014,08,25,09,38,17.40
2014,08,25,09,39,17.40
2014,08,25,09,40,17.50
2014,08,25,09,41,17.50
2014,08,25,09,42,17.60
2014,08,25,09,43,17.60
2014,08,25,09,44,17.70
2014,08,25,09,45,17.80
2014,08,25,09,46,17.80
2014,08,25,09,47,17.90
2014,08,25,09,48,17.90
2014,08,25,09,49,18.00
2014,08,25,09,50,18.00
2014,08,25,09,51,18.10
2014,08,25,09,52,18.20
2014,08,25,09,53,18.20
2014,08,25,09,54,18.30
2014,08,25,09,55,18.30
2014,08,25,09,56,18.40
2014,08,25,09,57,18.50
2014,08,25,09,58,18.50
2014,08,25,09,59,18.60
2014,08,25,10,00,18.70
2014,08,25,10,01,18.70
2014,08,25,10,02,18.80
2014,08,25,10,03,18.90
2014,08,25,10,04,18.90
2014,08,25,10,05,19.00
2014,08,25,10,06,19.10
2014,08,25,10,07,19.10
2014,08,25,10,08,19.20
2014,08,25,10,09,19.30
2014,08,25,10,10,19.30
2014,08,25,10,11,19.40
2014,08,25,10,12,19.40
2014,08,25,10,13,19.40
2014,08,25,10,14,19.40
2014,08,25,10,15,19.40
2014,08,25,10,16,19.40
2014,08,25,10,17,19.40
2014,08,25,10,18,19.40
2014,08,25,10,19,19.40
2014,08,25,10,20,19.50
2014,08,25,10,21,19.50
2014,08,25,10,22,19.50
2014,08,25,10,23,19.60
2014,08,25,10,24,19.60
2014,08,25,10,25,19.70
2014,08,25,10,26,19.70
2014,08,25,10,27,19.80
2014,08,25,10,28,19.80
2014,08,25,10,29,19.90
2014,08,25,10,30,19.90
2014,08,25,10,31,20.00
2014,08,25,10,32,20.10
2014,08,25,10,33,20.20
2014,08,25,10,34,20.30
2014,08,25,10,35,20.40
2014,08,25,10,36,20.40
2014,08,25,10,37,20.50
2014,08,25,10,38,20.60
2014,08,25,10,39,20.60
2014,08,25,10,40,20.60
2014,08,25,10,41,20.70
2014,08,25,10,42,20.80
2014,08,25,10,43,20.90
2014,08,25,10,44,21.00
2014,08,25,10,45,21.10
2014,08,25,10,46,21.20
2014,08,25,10,47,21.30
2014,08,25,10,48,21.40
2014,08,25,10,49,21.50
2014,08,25,10,50,21.60
2014,08,25,10,51,21.70
2014,08,25,10,52,21.80
2014,08,25,10,53,21.90
2014,08,25,10,54,22.00
2014,08,25,10,55,22.10
2014,08,25,10,56,22.20
2014,08,25,10,57,22.30
2014,08,25,10,58,22.40
2014,08,25,10,59,22.50
2014,08,25,11,00,22.60
2014,08,25,11,01,22.70
2014,08,25,11,02,22.80
2014,08,25,11,03,22.90
2014,08,25,11,04,23.00
2014,08,25,11,05,23.10
2014,08,25,11,06,23.20
2014,08,25,11,07,23.30
2014,08,25,11,08,23.30
2014,08,25,11,09,23.30
2014,08,25,11,10,23.30
2014,08,25,11,11,23.20
2014,08,25,11,12,23.20
2014,08,25,11,13,23.20
2014,08,25,11,14,23.20
2014,08,25,11,15,23.20
2014,08,25,11,16,23.30
2014,08,25,11,17,23.30
2014,08,25,11,18,23.40
2014,08,25,11,19,23.40
2014,08,25,11,20,23.50
2014,08,25,11,21,23.60
2014,08,25,11,22,23.70
2014,08,25,11,23,23.80
2014,08,25,11,24,23.80
2014,08,25,11,25,23.90
2014,08,25,11,26,23.90
2014,08,25,11,27,23.90
2014,08,25,11,28,24.00
2014,08,25,11,29,24.10
2014,08,25,11,30,24.20
2014,08,25,11,31,24.30
2014,08,25,11,32,24.30
2014,08,25,11,33,24.30
2014,08,25,11,34,24.30
2014,08,25,11,35,24.30
2014,08,25,11,36,24.30
2014,08,25,11,37,24.30
2014,08,25,11,38,24.30
2014,08,25,11,39,24.30
2014,08,25,11,40,24.30
2014,08,25,11,41,24.30
2014,08,25,11,42,24.20
2014,08,25,11,43,24.30
2014,08,25,11,44,24.30
2014,08,25,11,45,24.30
2014,08,25,11,46,24.30
2014,08,25,11,47,24.20
2014,08,25,11,48,24.20
2014,08,25,11,49,24.20
2014,08,25,11,50,24.20
2014,08,25,11,51,24.30
2014,08,25,11,52,24.30
2014,08,25,11,53,24.40
2014,08,25,11,54,24.40
2014,08,25,11,55,24.50
2014,08,25,11,56,24.50
2014,08,25,11,57,24.60
2014,08,25,11,58,24.60
2014,08,25,11,59,24.70
2014,08,25,12,00,24.80
2014,08,25,12,01,24.90
2014,08,25,12,02,25.00
2014,08,25,12,03,25.10
2014,08,25,12,04,25.30
2014,08,25,12,05,25.50
2014,08,25,12,06,25.60
2014,08,25,12,07,25.70
2014,08,25,12,08,25.70
2014,08,25,12,09,25.70
2014,08,25,12,10,25.70
2014,08,25,12,11,25.80
2014,08,25,12,12,25.90
2014,08,25,12,13,26.10
2014,08,25,12,14,26.20
2014,08,25,12,15,26.30
2014,08,25,12,16,26.40
2014,08,25,12,17,26.50
2014,08,25,12,18,26.70
2014,08,25,12,19,26.70
2014,08,25,12,20,26.70
2014,08,25,12,21,26.70
2014,08,25,12,22,26.70
2014,08,25,12,23,26.70
2014,08,25,12,24,26.70
2014,08,25,12,25,26.70
2014,08,25,12,26,26.70
2014,08,25,12,27,26.70
2014,08,25,12,28,26.70
2014,08,25,12,29,26.70
2014,08,25,12,30,26.70
2014,08,25,12,31,26.70
2014,08,25,12,32,26.80
2014,08,25,12,33,26.80
2014,08,25,12,34,26.80
2014,08,25,12,35,26.80
2014,08,25,12,36,26.80
2014,08,25,12,37,26.70
2014,08,25,12,38,26.70
2014,08,25,12,39,26.70
2014,08,25,12,40,26.70
2014,08,25,12,41,26.70
2014,08,25,12,42,26.70
2014,08,25,12,43,26.70
2014,08,25,12,44,26.80
2014,08,25,12,45,26.70
2014,08,25,12,46,26.70
2014,08,25,12,47,26.70
2014,08,25,12,48,26.70
2014,08,25,12,49,26.60
2014,08,25,12,50,26.60
2014,08,25,12,51,26.50
2014,08,25,12,52,26.50
2014,08,25,12,53,26.50
2014,08,25,12,54,26.50
2014,08,25,12,55,26.50
2014,08,25,12,56,26.60
2014,08,25,12,57,26.60
2014,08,25,12,58,26.70
2014,08,25,12,59,26.80
2014,08,25,13,00,26.80
2014,08,25,13,01,26.90
2014,08,25,13,02,26.90
2014,08,25,13,03,26.90
2014,08,25,13,04,26.90
2014,08,25,13,05,26.90
2014,08,25,13,06,26.90
2014,08,25,13,07,26.90
2014,08,25,13,08,26.90
2014,08,25,13,09,26.90
2014,08,25,13,10,26.90
2014,08,25,13,11,26.90
2014,08,25,13,12,26.90
2014,08,25,13,13,27.00
2014,08,25,13,14,27.00
2014,08,25,13,15,27.10
2014,08,25,13,16,27.20
2014,08,25,13,17,27.30
2014,08,25,13,18,27.40
2014,08,25,13,19,27.50
2014,08,25,13,20,27.60
2014,08,25,13,21,27.60
2014,08,25,13,22,27.50
2014,08,25,13,23,27.40
2014,08,25,13,24,27.30
2014,08,25,13,25,27.20
2014,08,25,13,26,27.10
2014,08,25,13,27,27.10
2014,08,25,13,28,27.00
2014,08,25,13,29,26.80
2014,08,25,13,30,26.80
2014,08,25,13,31,26.70
2014,08,25,13,32,26.70
2014,08,25,13,33,26.70
2014,08,25,13,34,26.70
2014,08,25,13,35,26.70
2014,08,25,13,36,26.70
2014,08,25,13,37,26.70
2014,08,25,13,38,26.70
2014,08,25,13,39,26.60
2014,08,25,13,40,26.60
2014,08,25,13,41,26.50
2014,08,25,13,42,26.40
2014,08,25,13,43,26.30
2014,08,25,13,44,26.30
2014,08,25,13,45,26.20
2014,08,25,13,46,26.20
2014,08,25,13,47,26.20
2014,08,25,13,48,26.20
2014,08,25,13,49,26.20
2014,08,25,13,50,26.20
2014,08,25,13,51,26.30
2014,08,25,13,52,26.30
2014,08,25,13,53,26.40
2014,08,25,13,54,26.40
2014,08,25,13,55,26.50
2014,08,25,13,56,26.50
2014,08,25,13,57,26.40
2014,08,25,13,58,26.30
2014,08,25,13,59,26.20
2014,08,25,14,00,26.10
2014,08,25,14,01,26.10
2014,08,25,14,02,26.10
2014,08,25,14,03,26.00
2014,08,25,14,04,25.90
2014,08,25,14,05,25.90
2014,08,25,14,06,25.80
2014,08,25,14,07,25.80
2014,08,25,14,08,25.80
2014,08,25,14,09,25.80
2014,08,25,14,10,25.70
2014,08,25,14,11,25.70
2014,08,25,14,12,25.70
2014,08,25,14,13,25.70
2014,08,25,14,14,25.70
2014,08,25,14,15,25.80
2014,08,25,14,16,25.80
2014,08,25,14,17,25.80
2014,08,25,14,18,25.80
2014,08,25,14,19,25.80
2014,08,25,14,20,25.80
2014,08,25,14,21,25.90
2014,08,25,14,22,25.90
2014,08,25,14,23,25.90
2014,08,25,14,24,25.90
2014,08,25,14,25,25.90
2014,08,25,14,26,26.00
2014,08,25,14,27,26.00
2014,08,25,14,28,26.00
2014,08,25,14,29,26.00
2014,08,25,14,30,26.00
2014,08,25,14,31,25.90
2014,08,25,14,32,25.90
2014,08,25,14,33,25.80
2014,08,25,14,34,25.80
2014,08,25,14,35,25.70
2014,08,25,14,36,25.70
2014,08,25,14,37,25.70
2014,08,25,14,38,25.70
2014,08,25,14,39,25.70
2014,08,25,14,40,25.70
2014,08,25,14,41,25.80
2014,08,25,14,42,25.80
2014,08,25,14,43,25.70
2014,08,25,14,44,25.70
2014,08,25,14,45,25.70
2014,08,25,14,46,25.70
2014,08,25,14,47,25.80
2014,08,25,14,48,25.90
2014,08,25,14,49,25.90
2014,08,25,14,50,26.00
2014,08,25,14,51,26.00
2014,08,25,14,52,26.00
2014,08,25,14,53,26.00
2014,08,25,14,54,25.90
2014,08,25,14,55,25.80
2014,08,25,14,56,25.70
2014,08,25,14,57,25.60
2014,08,25,14,58,25.50
2014,08,25,14,59,25.40
2014,08,25,15,00,25.40
2014,08,25,15,01,25.40
2014,08,25,15,02,25.30
2014,08,25,15,03,25.30
2014,08,25,15,04,25.40
2014,08,25,15,05,25.40
2014,08,25,15,06,25.50
2014,08,25,15,07,25.50
2014,08,25,15,08,25.60
2014,08,25,15,09,25.70
2014,08,25,15,10,25.80
2014,08,25,15,11,25.90
2014,08,25,15,12,25.90
2014,08,25,15,13,26.00
2014,08,25,15,14,26.00
2014,08,25,15,15,25.90
2014,08,25,15,16,25.90
2014,08,25,15,17,25.80
2014,08,25,15,18,25.90
2014,08,25,15,19,25.90
2014,08,25,15,20,25.90
2014,08,25,15,21,26.00
2014,08,25,15,22,26.10
2014,08,25,15,23,26.10
2014,08,25,15,24,26.10
2014,08,25,15,25,26.00
2014,08,25,15,26,26.00
2014,08,25,15,27,26.10
2014,08,25,15,28,26.10
2014,08,25,15,29,26.10
2014,08,25,15,30,26.00
2014,08,25,15,31,25.90
2014,08,25,15,32,25.80
2014,08,25,15,33,25.80
2014,08,25,15,34,25.70
2014,08,25,15,35,25.60
2014,08,25,15,36,25.60
2014,08,25,15,37,25.60
2014,08,25,15,38,25.60
2014,08,25,15,39,25.70
2014,08,25,15,40,25.70
2014,08,25,15,41,25.80
2014,08,25,15,42,25.90
2014,08,25,15,43,26.00
2014,08,25,15,44,26.10
2014,08,25,15,45,26.20
2014,08,25,15,46,26.20
2014,08,25,15,47,26.10
2014,08,25,15,48,26.10
2014,08,25,15,49,26.10
2014,08,25,15,50,26.00
2014,08,25,15,51,25.90
2014,08,25,15,52,25.80
2014,08,25,15,53,25.80
2014,08,25,15,54,25.80
2014,08,25,15,55,25.80
2014,08,25,15,56,25.70
2014,08,25,15,57,25.70
2014,08,25,15,58,25.60
2014,08,25,15,59,25.50
2014,08,25,16,00,25.40
2014,08,25,16,01,25.40
2014,08,25,16,02,25.40
2014,08,25,16,03,25.40
2014,08,25,16,04,25.30
2014,08,25,16,05,25.30
2014,08,25,16,06,25.30
2014,08,25,16,07,25.30
2014,08,25,16,08,25.40
2014,08,25,16,09,25.40
2014,08,25,16,10,25.50
2014,08,25,16,11,25.60
2014,08,25,16,12,25.50
2014,08,25,16,13,25.50
2014,08,25,16,14,25.50
2014,08,25,16,15,25.50
2014,08,25,16,16,25.50
2014,08,25,16,17,25.40
2014,08,25,16,18,25.40
2014,08,25,16,19,25.40
2014,08,25,16,20,25.30
2014,08,25,16,21,25.30
2014,08,25,16,22,25.30
2014,08,25,16,23,25.40
2014,08,25,16,24,25.40
2014,08,25,16,25,25.40
2014,08,25,16,26,25.50
2014,08,25,16,27,25.50
2014,08,25,16,28,25.50
2014,08,25,16,29,25.50
2014,08,25,16,30,25.60
2014,08,25,16,31,25.60
2014,08,25,16,32,25.60
2014,08,25,16,33,25.60
2014,08,25,16,34,25.70
2014,08,25,16,35,25.70
2014,08,25,16,36,25.90
2014,08,25,16,37,26.00
2014,08,25,16,38,26.00
2014,08,25,16,39,26.00
2014,08,25,16,40,26.00
2014,08,25,16,41,25.90
2014,08,25,16,42,25.80
2014,08,25,16,43,25.70
2014,08,25,16,44,25.60
2014,08,25,16,45,25.50
2014,08,25,16,46,25.50
2014,08,25,16,47,25.40
2014,08,25,16,48,25.30
2014,08,25,16,49,25.30
2014,08,25,16,50,25.40
2014,08,25,16,51,25.40
2014,08,25,16,52,25.40
2014,08,25,16,53,25.40
2014,08,25,16,54,25.40
2014,08,25,16,55,25.40
2014,08,25,16,56,25.30
2014,08,25,16,57,25.30
2014,08,25,16,58,25.30
2014,08,25,16,59,25.20
2014,08,25,17,00,25.20
2014,08,25,17,01,25.10
2014,08,25,17,02,25.10
2014,08,25,17,03,25.10
2014,08,25,17,04,25.10
2014,08,25,17,05,25.20
2014,08,25,17,06,25.20
2014,08,25,17,07,25.10
2014,08,25,17,08,25.10
2014,08,25,17,09,25.10
2014,08,25,17,10,25.20
2014,08,25,17,11,25.20
2014,08,25,17,12,25.10
2014,08,25,17,13,25.10
2014,08,25,17,14,25.10
2014,08,25,17,15,25.10
2014,08,25,17,16,25.10
2014,08,25,17,17,25.10
2014,08,25,17,18,25.10
2014,08,25,17,19,25.10